Vertical_Velocity
-3 3 3 4 -1 -2 -1 2 1 3 2 2 1 -0 -1 3 1 3 4 -3 -8 -6 -0 1 -1 -1 -1 -1 2 -3 -3 -2 -1 1 5 -3 -0 -0 1 2 1 3 1
-3 3 5 7 -4 2 -0 2 -1 1 4 1 2 -0 4 3 4 -3 1 25 -1 -1 1 0 0 -1 -1 -0 -0 -2 -2 -4 -2 -4 -4 -1 10 4 1 -0 -2 -1 2
-0 -2 4 3 6 0 5 3 -2 -3 1 1 1 4 5 4 -2 -2 3 -3 -4 -1 2 1 -0 0 -2 -1 -1 -1 1 -1 -3 -2 -2 -8 -4 -5 10 9 7 5 5
-0 -1 3 -1 1 5 5 2 -1 -2 -0 -0 1 3 8 8 3 3 -0 4 -1 2 2 -0 0 -2 0 0 -3 -0 -1 -1 0 0 -3 -4 -4 -10 -13 7 1 -2 -1
-3 -7 -1 -2 -0 -0 2 4 1 -2 -1 -1 -2 -0 6 8 4 1 -1 1 1 3 1 1 -1 1 -0 -1 -2 -2 -4 -2 -2 -2 -1 4 2 -2 -10 -13 0 5 2
-3 -2 4 1 -6 -3 2 3 -0 -1 0 -0 -1 1 3 3 4 2 3 0 2 2 -0 0 -1 0 -0 -2 -3 -3 -2 -2 -2 -2 -3 -4 -4 -4 -10 -13 -5 -13 5
-3 -2 4 2 -7 -2 1 4 2 -0 1 1 1 3 4 4 0 1 1 1 2 2 0 -1 -1 -1 -2 -2 -2 -1 -1 -1 -1 -0 -1 -2 -4 -4 -4 -9 -5 -23 1
4 0 -2 -1 -0 2 -1 3 1 0 2 3 0 1 1 1 1 1 0 -1 3 1 1 -1 -3 -1 -1 -0 -2 -2 -1 -2 -1 -2 -2 -1 -3 -2 -4 -7 -16 -14 -7
6 9 2 0 -2 -0 1 3 -0 1 2 3 1 -0 2 3 3 -0 0 2 2 0 -1 -2 -1 -1 0 -1 -2 -0 0 -2 -2 -2 -0 -1 -2 -1 -1 -2 -3 -15 -42
7 4 6 2 2 -2 1 4 -1 3 4 3 2 1 2 2 1 1 2 1 0 0 -1 -1 -1 -1 -1 -1 -0 -1 -2 0 -0 0 1 0 -2 -0 -0 -1 0 2 -10
5 2 2 -2 -0 -0 5 3 0 2 1 3 3 1 2 2 1 3 1 1 -0 -0 -1 -2 -1 -2 -1 -1 -1 -1 -0 0 1 -1 -2 -1 -2 1 0 1 1 1 0
-0 5 3 3 5 -1 8 2 -1 2 1 5 2 2 2 1 1 2 2 0 -0 -1 -1 -1 -1 -1 -1 -2 -0 1 -0 0 1 -1 -0 -0 -2 0 -1 -2 1 -2 5
3 4 5 1 2 0 6 0 1 1 2 4 1 2 1 1 0 2 1 0 -1 -0 -1 0 -1 -1 -0 0 -1 1 1 0 -2 -2 -2 -1 -1 1 -1 -2 -3 -1 -1
1 -3 -4 0 2 6 5 0 1 1 3 3 1 0 -1 1 2 1 0 0 -0 -1 -0 -3 -1 0 1 0 0 1 1 -1 -2 -1 -2 -1 -3 -4 -3 -3 -2 -1 -2
-1 -1 -4 -2 3 5 1 -0 2 4 3 2 0 0 2 2 1 1 0 1 -0 -1 -2 -1 -0 -0 -1 -1 -0 -1 -2 -2 1 0 -1 -2 -3 -4 -2 -5 -0 -4 -5
-4 -3 -1 3 4 3 0 2 3 3 3 2 1 2 2 1 1 1 1 -0 -3 -2 -1 0 -1 -1 -0 -0 -1 -3 -0 1 -2 -2 -2 -3 -2 -0 -0 -1 2 6 -7
-1 0 3 5 3 1 2 3 5 3 2 2 2 1 -0 0 0 -0 0 -3 -2 -1 -1 -1 -1 -1 -1 0 -0 -0 -0 -1 -2 -6 -5 1 2 1 -1 7 5 3 5
-1 -1 1 0 -1 0 1 1 1 1 1 1 0 -0 0 0 1 0 -3 -3 -1 0 -1 -1 -1 0 -2 1 -0 -0 0 -1 -2 -2 -0 -2 0 3 -5 -5 -2 1 4
2 4 3 2 1 1 -1 0 1 2 1 0 0 1 -0 1 -1 -2 -1 1 0 -1 -2 -2 -1 0 -1 -1 -1 -2 -2 -2 -1 3 0 -5 -8 -2 4 2 -3 1 2
3 2 -1 -2 -2 -2 -1 0 1 1 1 1 -1 -0 1 -2 -0 1 1 -0 -1 0 -0 -1 -2 -4 -1 -2 -1 -5 -4 -2 -1 -0 -2 2 -3 -1 -0 -4 -4 -5 -3
-0 -3 -3 1 -0 -1 0 1 1 1 1 0 -0 0 1 1 1 1 0 -0 -1 -1 1 -1 -3 -2 -5 -1 -3 -2 -1 -4 -3 -1 0 0 -0 0 -0 -1 -1 -2 -6
0 -1 1 0 2 2 1 2 2 1 0 1 2 1 1 1 1 1 0 -0 -1 -1 -2 -0 2 -1 -1 -4 -0 -0 -2 -0 -4 -3 0 -1 -1 -1 -1 -2 -3 -1 -1
1 0 1 1 -0 1 2 1 1 1 1 0 0 0 -0 -1 -0 -0 -0 -2 -2 -2 -2 -2 0 1 -1 -1 -3 -2 2 2 -3 -1 -1 -1 0 -0 -0 1 -0 -2 -1
2 1 0 0 1 1 1 1 1 0 0 1 1 -0 0 0 -0 -0 -1 -2 -2 -1 -2 -2 -1 -2 -1 -2 -2 -3 -5 -2 -2 -0 0 -2 -1 -2 -5 -2 1 0 -3
2 2 2 1 1 -0 0 1 1 1 1 0 -0 1 0 -0 -1 -1 -2 -1 -3 -3 -4 -4 -4 -6 -2 -3 -6 -6 -3 -4 -2 -0 -1 0 0 1 2 4 1 -1 -1
2 1 -0 0 1 1 1 1 1 1 0 1 1 1 -0 -1 -1 -1 -1 -5 -2 -2 -3 -2 -4 1 -5 -3 -1 -1 0 -2 -2 1 -5 -1 -1 -3 -3 -2 1 1 2
Height
3066 3069 3074 3077 3077 3080 3085 3088 3091 3092 3092 3093 3094 3097 3098 3101 3101 3102 3104 3103 3103 3103 3102 3100 3100 3099 3098 3095 3092 3090 3087 3084 3081 3079 3077 3073 3070 3068 3066 3063 3060 3056 3053
3056 3061 3066 3069 3071 3074 3078 3082 3085 3086 3086 3087 3088 3091 3093 3096 3096 3097 3099 3100 3100 3099 3098 3097 3096 3095 3093 3091 3088 3085 3081 3077 3075 3072 3069 3067 3066 3062 3060 3056 3053 3049 3046
3045 3052 3058 3063 3065 3069 3073 3076 3079 3080 3080 3080 3082 3085 3089 3091 3091 3093 3095 3096 3095 3095 3094 3093 3092 3090 3088 3086 3082 3079 3075 3071 3067 3063 3060 3055 3053 3050 3051 3050 3047 3042 3039
3036 3044 3049 3055 3059 3062 3066 3070 3072 3074 3074 3075 3077 3080 3083 3086 3087 3088 3090 3091 3092 3091 3091 3090 3088 3086 3083 3080 3077 3073 3069 3065 3061 3056 3053 3049 3043 3038 3035 3039 3037 3033 3028
3026 3033 3040 3048 3052 3055 3060 3064 3066 3068 3069 3071 3073 3075 3077 3080 3081 3083 3085 3086 3087 3087 3087 3086 3084 3081 3078 3074 3071 3066 3063 3059 3054 3050 3046 3043 3038 3032 3025 3018 3022 3021 3017
3016 3024 3030 3038 3043 3048 3053 3057 3061 3063 3065 3067 3069 3070 3073 3076 3078 3079 3081 3083 3084 3084 3083 3081 3079 3076 3072 3069 3064 3060 3056 3051 3047 3043 3038 3033 3028 3024 3017 3009 3004 2996 2995
3004 3011 3019 3027 3034 3041 3047 3052 3055 3058 3060 3063 3064 3067 3070 3072 3074 3076 3078 3079 3080 3079 3078 3076 3074 3070 3067 3062 3058 3053 3049 3044 3040 3035 3030 3025 3019 3012 3006 2999 2992 2984 2980
2993 3002 3009 3019 3027 3035 3040 3046 3050 3053 3055 3058 3060 3063 3066 3068 3071 3073 3075 3075 3075 3075 3073 3071 3068 3064 3060 3055 3050 3046 3041 3037 3032 3027 3022 3016 3009 3003 2996 2988 2979 2970 2965
2984 2993 3001 3011 3021 3029 3035 3040 3045 3048 3051 3053 3056 3059 3062 3065 3067 3069 3070 3071 3071 3070 3068 3065 3061 3058 3053 3049 3043 3038 3034 3028 3023 3018 3012 3006 3000 2993 2986 2978 2970 2960 2946
2978 2986 2994 3004 3014 3023 3029 3034 3039 3043 3046 3049 3052 3056 3059 3062 3064 3065 3066 3067 3066 3064 3062 3059 3055 3051 3046 3040 3035 3031 3025 3021 3015 3009 3003 2997 2990 2983 2976 2967 2959 2950 2940
2974 2981 2990 2998 3008 3018 3023 3029 3034 3038 3042 3045 3049 3053 3056 3058 3060 3061 3062 3062 3060 3058 3056 3052 3048 3043 3038 3033 3028 3023 3018 3013 3007 3001 2994 2987 2979 2972 2964 2955 2946 2937 2927
2968 2977 2986 2995 3002 3012 3019 3024 3030 3034 3038 3042 3046 3049 3052 3055 3057 3057 3057 3056 3054 3052 3049 3045 3041 3036 3031 3025 3020 3016 3010 3004 2997 2990 2984 2976 2968 2960 2951 2942 2933 2924 2914
2964 2971 2980 2988 2998 3007 3014 3020 3026 3031 3035 3039 3043 3046 3049 3051 3052 3052 3052 3050 3049 3046 3042 3038 3034 3029 3024 3019 3013 3006 3000 2994 2987 2980 2972 2964 2954 2946 2937 2929 2919 2910 2900
2962 2968 2976 2986 2996 3004 3011 3017 3022 3027 3032 3036 3039 3043 3045 3047 3047 3047 3046 3045 3042 3039 3035 3031 3026 3021 3016 3010 3004 2998 2992 2986 2978 2970 2961 2952 2944 2935 2925 2915 2905 2895 2886
2960 2969 2977 2986 2994 3002 3008 3014 3019 3025 3029 3033 3036 3039 3041 3042 3042 3042 3041 3039 3036 3032 3028 3024 3018 3013 3007 3002 2996 2989 2982 2975 2967 2959 2950 2942 2933 2923 2913 2902 2893 2884 2877
2964 2971 2979 2987 2994 3001 3007 3012 3018 3023 3027 3030 3033 3035 3036 3037 3037 3036 3035 3032 3029 3025 3020 3016 3011 3005 2999 2994 2987 2979 2972 2965 2956 2948 2940 2932 2922 2912 2903 2893 2884 2877 2868
2968 2975 2982 2989 2995 3001 3006 3011 3016 3021 3024 3027 3029 3031 3032 3032 3032 3030 3028 3025 3022 3017 3013 3007 3002 2998 2991 2985 2978 2971 2963 2955 2947 2938 2930 2921 2910 2900 2892 2884 2874 2869 2862
2972 2978 2984 2989 2995 3000 3005 3010 3014 3018 3021 3023 3025 3026 3027 3027 3026 3024 3022 3019 3014 3010 3005 3000 2995 2989 2983 2977 2969 2961 2953 2945 2937 2929 2919 2909 2899 2890 2880 2870 2864 2860 2853
2977 2982 2986 2991 2995 2999 3004 3008 3012 3015 3017 3019 3020 3021 3022 3022 3021 3018 3015 3011 3007 3003 2998 2993 2987 2982 2976 2968 2960 2951 2944 2935 2928 2919 2908 2897 2887 2878 2871 2863 2856 2851 2846
2979 2983 2987 2990 2994 2998 3002 3006 3010 3012 3014 3015 3017 3017 3017 3016 3014 3011 3008 3005 3001 2996 2992 2986 2980 2973 2966 2958 2950 2942 2932 2925 2916 2908 2898 2888 2879 2872 2865 2856 2848 2842 2837
2981 2984 2987 2991 2995 2998 3002 3004 3007 3009 3010 3012 3013 3013 3011 3009 3008 3005 3002 2998 2994 2989 2984 2980 2973 2966 2957 2949 2942 2934 2925 2914 2904 2896 2889 2880 2872 2866 2858 2851 2843 2837 2831
2981 2984 2988 2991 2994 2997 2999 3002 3004 3006 3007 3008 3008 3007 3006 3004 3001 2999 2996 2992 2987 2983 2977 2972 2966 2958 2950 2942 2934 2926 2916 2906 2896 2888 2880 2872 2865 2858 2851 2845 2838 2832 2826
2982 2985 2988 2990 2993 2995 2998 3000 3002 3003 3003 3003 3003 3002 3000 2999 2997 2994 2990 2985 2981 2976 2970 2962 2956 2949 2943 2935 2926 2916 2907 2898 2888 2881 2874 2866 2859 2852 2846 2839 2833 2827 2822
2982 2984 2987 2989 2992 2994 2996 2998 2999 2999 3000 2999 2998 2997 2996 2994 2991 2988 2985 2980 2974 2968 2961 2953 2947 2940 2933 2923 2914 2905 2896 2888 2880 2873 2866 2860 2853 2847 2841 2836 2831 2825 2819
2981 2983 2986 2988 2991 2993 2994 2995 2996 2996 2996 2995 2994 2993 2991 2989 2986 2983 2978 2973 2966 2959 2951 2944 2937 2929 2921 2912 2903 2895 2887 2879 2873 2866 2861 2855 2848 2843 2837 2833 2827 2821 2816
2980 2983 2985 2988 2990 2991 2992 2993 2993 2993 2992 2992 2990 2989 2987 2984 2981 2977 2972 2965 2960 2953 2946 2938 2930 2923 2915 2906 2898 2890 2883 2876 2868 2863 2856 2849 2844 2838 2833 2828 2823 2817 2811